Waarnemingen

Advertentie
Mijn weer
Bastia, Frankrijk (7790): temperatuur & dauwpunt: 05.12.2017 10:00:00 - 11.12.2017 10:00:00 (CET)Bastia, Frankrijk (7790): temperatuur 5cm: 05.12.2017 10:00:00 - 11.12.2017 10:00:00 (CET)Bastia, Frankrijk (7790): temperatuur -20cm & temperatuur -100cm: 05.12.2017 10:00:00 - 11.12.2017 10:00:00 (CET)Bastia, Frankrijk (7790): windsnelheid & windstoten: 05.12.2017 10:00:00 - 11.12.2017 10:00:00 (CET)Bastia, Frankrijk (7790): windrichting: 05.12.2017 10:00:00 - 11.12.2017 10:00:00 (CET)Bastia, Frankrijk (7790): luchtdruk: 05.12.2017 10:00:00 - 11.12.2017 10:00:00 (CET)Bastia, Frankrijk (7790): zicht: 05.12.2017 10:00:00 - 11.12.2017 10:00:00 (CET)Bastia, Frankrijk (7790): Zonneschijnduur: 05.12.2017 10:00:00 - 11.12.2017 10:00:00 (CET)Bastia, Frankrijk (7790): neerslag: 05.12.2017 10:00:00 - 11.12.2017 10:00:00 (CET)
Datum & Tijd tt [°C] td [°C] tt 5cm [°C] tt -20cm [°C] tt -100cm [°C] ff [km/u] ff [kn] fx [km/u] fx [kn] dd ppp [hPa] vv [km] sd [min] rr [mm]
11.12.2017 10:00:00 15,8 11,2 - - - 28 15 61 33 Z 998,7 20 0 -
11.12.2017 09:00:00 14,9 10,9 13,1 12,3 13,2 24 13 44 24 Z 998,7 30 0 0,0
11.12.2017 08:00:00 14,2 11,4 12,1 12,3 13,2 8 5 30 16 ZZW 999,5 30 0 0,0
11.12.2017 07:00:00 14,0 10,4 11,9 12,3 13,2 5 3 22 12 OZO 999,6 10 0 0,0
11.12.2017 06:00:00 14,3 10,5 12,5 12,2 13,2 16 9 29 16 ZZO 999,9 25 0 0,0
11.12.2017 05:00:00 14,1 9,7 11,1 12,2 13,2 9 5 20 11 Z 999,9 10 0 0,0
11.12.2017 04:00:00 13,0 9,1 9,1 12,1 13,2 8 4 26 14 ZW 1000,8 10 0 0,0
11.12.2017 03:00:00 10,8 8,2 8,8 12,1 13,2 6 3 13 7 WZW 1001,4 15 0 0,0
11.12.2017 02:00:00 11,4 8,4 8,8 12,1 13,2 3 2 14 8 NW 1001,6 35 0 0,0
11.12.2017 01:00:00 13,5 9,2 12,0 12,1 13,3 8 4 25 14 - 1001,8 10 0 0,0
11.12.2017 00:00:00 13,4 10,0 11,1 12,0 13,2 8 4 19 11 ZZO 1002,8 10 0 0,0
10.12.2017 23:00:00 12,4 8,7 9,0 12,0 13,3 8 4 17 9 Z 1003,3 15 0 0,0
10.12.2017 22:00:00 9,6 6,7 8,5 12,0 13,3 6 3 12 6 Z 1003,6 15 0 0,0
10.12.2017 21:00:00 10,2 6,0 9,4 11,9 13,3 5 3 14 7 WNW 1004,3 15 0 0,0
10.12.2017 20:00:00 10,1 6,4 9,2 11,8 13,3 8 4 13 7 O 1004,5 10 0 0,0
10.12.2017 19:00:00 10,8 6,9 9,2 11,7 13,3 8 4 13 7 ZW 1004,8 10 0 0,0
10.12.2017 18:00:00 10,1 5,1 8,0 11,7 13,3 6 3 13 7 WZW 1005,2 15 0 0,0
10.12.2017 17:00:00 10,4 3,9 9,0 11,6 13,3 5 3 14 8 NNW 1005,7 20 0 0,0
10.12.2017 16:00:00 11,4 4,1 11,7 11,6 13,3 9 5 27 15 NNW 1006,6 20 2 0,0
10.12.2017 15:00:00 12,0 4,0 13,9 11,5 13,3 4 2 18 10 N 1007,4 20 29 0,0
10.12.2017 14:00:00 13,0 4,4 15,5 11,6 13,3 10 5 21 11 NNW 1008,8 20 43 0,0
10.12.2017 13:00:00 12,5 4,0 10,7 11,6 13,3 16 9 28 15 ZZO 1010,3 10 28 0,0
10.12.2017 12:00:00 8,2 1,1 7,7 11,4 13,3 2 1 6 3 NW 1012,7 20 0 0,0
10.12.2017 11:00:00 6,9 0,1 6,2 11,4 13,3 5 3 8 5 N 1014,2 20 0 0,0
10.12.2017 10:00:00 5,6 -1,3 5,4 11,5 13,3 6 3 13 7 ZZW 1015,2 20 1 0,0
10.12.2017 09:00:00 4,7 -2,6 3,7 11,5 13,3 11 6 17 9 ZW 1015,4 10 2 0,0
10.12.2017 08:00:00 3,9 -2,9 1,9 11,6 13,3 8 4 11 6 ZW 1015,6 10 6 0,0
10.12.2017 07:00:00 2,3 -3,6 -0,3 11,7 13,3 5 3 11 6 WZW 1015,8 30 0 0,0
10.12.2017 06:00:00 1,9 -4,6 -0,2 11,7 13,3 4 2 17 9 WZW 1015,7 30 0 0,0
10.12.2017 05:00:00 3,5 -5,2 0,9 11,8 13,3 14 7 24 13 WZW 1016,0 30 0 0,0
10.12.2017 04:00:00 2,4 -5,3 0,9 11,8 13,3 13 7 25 13 ZW 1016,4 10 0 0,0
10.12.2017 03:00:00 3,5 -5,2 1,3 11,9 13,3 14 7 30 16 ZW 1017,3 30 0 0,0
10.12.2017 02:00:00 5,2 -6,1 3,1 11,9 13,4 21 11 31 17 WZW 1017,4 10 0 0,0
10.12.2017 01:00:00 4,7 -5,7 3,0 12,0 13,4 18 10 29 15 WZW 1017,9 10 0 0,0
10.12.2017 00:00:00 4,7 -5,4 3,5 12,1 13,4 21 11 29 16 WZW 1018,2 10 0 0,0
09.12.2017 23:00:00 4,8 -5,0 3,3 12,1 13,3 18 10 27 15 WZW 1018,5 30 0 0,0
09.12.2017 22:00:00 4,6 -4,9 1,6 12,2 13,4 18 10 24 13 WZW 1018,1 30 0 0,0
09.12.2017 21:00:00 4,0 -5,0 -0,4 12,2 13,4 13 7 19 10 WZW 1018,0 10 0 0,0
09.12.2017 20:00:00 1,9 -3,4 -0,8 12,2 13,4 9 5 15 8 ZW 1017,9 10 0 0,0
09.12.2017 19:00:00 2,3 -3,6 -0,7 12,3 13,4 9 5 11 6 WZW 1017,5 30 0 0,0
09.12.2017 18:00:00 5,3 -5,7 1,7 12,3 13,4 8 4 18 10 W 1016,8 10 0 0,0
09.12.2017 17:00:00 6,6 -6,7 1,1 12,3 13,4 8 4 22 12 W 1015,9 47 17 0,0
09.12.2017 16:00:00 8,9 -6,9 8,6 12,4 13,4 17 9 39 21 NNW 1015,4 30 50 0,0
09.12.2017 15:00:00 9,1 -6,0 8,2 12,4 13,4 20 11 46 25 NNW 1015,0 30 6 0,0
09.12.2017 14:00:00 9,7 -7,1 9,5 12,3 13,4 26 14 45 25 NW 1014,1 30 0 0,0
09.12.2017 13:00:00 9,5 -2,5 8,4 12,3 13,4 22 12 50 27 NW 1014,0 30 4 0,0
09.12.2017 12:00:00 8,4 -1,2 8,0 12,4 13,4 33 18 48 26 WNW 1013,6 30 26 0,0
09.12.2017 11:00:00 6,7 1,2 4,3 12,4 13,4 5 3 38 21 Z 1013,3 10 3 0,0
09.12.2017 10:00:00 5,0 1,5 3,7 12,4 13,4 21 12 45 24 W 1013,8 30 0 0,8
09.12.2017 09:00:00 5,5 2,0 4,9 12,5 13,4 37 20 67 36 NNW 1013,2 15 18 0,0
09.12.2017 08:00:00 8,2 -0,8 5,8 12,5 13,4 40 22 76 41 W 1010,8 15 0 0,0
09.12.2017 07:00:00 9,1 -1,6 7,9 12,5 13,4 42 23 72 39 NW 1010,7 30 0 0,0
09.12.2017 06:00:00 9,2 -2,1 7,5 12,6 13,4 24 13 63 34 WNW 1009,9 10 0 0,0
09.12.2017 05:00:00 9,7 -2,3 8,7 12,6 13,4 37 20 76 41 WNW 1009,4 10 0 0,0
09.12.2017 04:00:00 9,9 -2,1 8,6 12,6 13,4 49 26 84 45 NW 1009,1 30 0 0,0
09.12.2017 03:00:00 10,4 -3,0 8,6 12,6 13,4 35 19 66 36 WNW 1009,4 10 0 0,0
09.12.2017 02:00:00 10,8 -4,5 6,0 12,7 13,4 34 19 56 30 NW 1009,3 60 0 0,0
09.12.2017 01:00:00 10,2 -4,2 3,2 12,7 13,4 6 4 22 12 NO 1009,4 60 0 0,0
09.12.2017 00:00:00 9,2 -1,8 5,3 12,7 13,4 9 5 34 19 N 1009,8 10 0 0,0
08.12.2017 23:00:00 12,3 -2,0 5,2 12,7 13,4 21 11 40 22 W 1009,8 30 0 0,0
08.12.2017 22:00:00 8,8 5,5 3,4 12,6 13,4 5 3 17 9 N 1009,6 55 0 0,0
08.12.2017 21:00:00 9,8 6,3 4,5 12,6 13,4 4 2 19 10 - 1009,7 10 0 0,0
08.12.2017 20:00:00 10,8 6,5 7,0 12,6 13,4 6 3 13 7 ZZW 1011,0 30 0 0,0
08.12.2017 19:00:00 11,3 7,2 9,1 12,5 13,5 5 3 25 14 ZZW 1011,8 10 0 0,0
08.12.2017 18:00:00 12,3 7,4 8,4 12,5 13,4 15 8 26 14 W 1012,6 30 0 0,2
08.12.2017 17:00:00 12,8 7,7 10,2 12,4 13,5 10 6 18 10 WZW 1013,4 30 0 0,0
08.12.2017 16:00:00 14,9 6,5 14,9 12,4 13,5 6 3 19 10 ZZW 1014,3 30 3 0,0
08.12.2017 15:00:00 15,7 8,2 16,2 12,4 13,5 4 2 11 6 ZO 1015,1 30 51 0,0
08.12.2017 14:00:00 14,6 7,9 15,8 12,2 13,4 3 2 8 4 NO 1016,0 30 1 0,0
08.12.2017 13:00:00 14,2 7,3 15,2 12,2 13,5 5 3 11 6 NW 1017,4 30 0 0,0
08.12.2017 12:00:00 13,3 6,4 13,0 12,2 13,5 4 2 11 6 - 1018,9 10 0 0,0
08.12.2017 11:00:00 12,6 6,2 12,9 12,2 13,5 8 4 14 8 ZZW 1020,0 30 0 0,0
08.12.2017 10:00:00 12,8 5,2 9,0 12,2 13,5 9 5 21 11 ZZW 1020,8 30 18 0,0
08.12.2017 09:00:00 8,9 4,1 6,9 12,2 13,5 11 6 20 11 ZZW 1021,4 30 8 0,0
08.12.2017 08:00:00 7,2 3,2 5,4 12,2 13,5 11 6 21 11 ZW 1022,0 30 0 0,0
08.12.2017 07:00:00 6,2 2,8 4,8 12,2 13,5 16 8 21 11 Z 1022,6 15 0 0,0
08.12.2017 06:00:00 6,9 2,6 5,8 12,2 13,5 11 6 22 12 ZW 1023,1 15 0 0,0
08.12.2017 05:00:00 7,8 3,3 6,2 12,3 13,5 14 8 22 12 ZW 1023,9 60 0 0,0
08.12.2017 04:00:00 7,7 3,2 6,1 12,3 13,5 14 8 23 12 ZW 1024,7 15 0 0,0
08.12.2017 03:00:00 7,0 3,1 5,7 12,3 13,5 15 8 21 11 ZW 1025,9 10 0 0,0
08.12.2017 02:00:00 7,1 3,5 4,2 12,3 13,5 8 4 13 7 ZW 1026,3 18 0 0,0
08.12.2017 01:00:00 6,0 2,6 3,8 12,3 13,5 10 5 16 9 ZW 1027,0 20 0 0,0
08.12.2017 00:00:00 7,7 3,0 5,7 12,3 13,5 12 6 19 11 WZW 1027,8 20 0 0,0
07.12.2017 23:00:00 9,4 3,4 3,2 12,4 13,5 18 10 24 13 WZW 1028,5 15 0 0,0
07.12.2017 22:00:00 6,1 3,4 2,3 12,4 13,5 8 4 11 6 ZW 1028,7 10 0 0,0
07.12.2017 21:00:00 6,2 3,5 2,9 12,3 13,5 7 4 10 5 ZW 1029,1 48 0 0,0
07.12.2017 20:00:00 6,9 4,4 2,0 12,3 13,5 6 4 13 7 WZW 1029,1 15 0 0,0
07.12.2017 19:00:00 6,8 4,5 4,1 12,2 13,5 5 3 12 7 WZW 1029,5 10 0 0,0
07.12.2017 18:00:00 8,0 6,1 4,8 12,1 13,5 8 5 13 7 ZW 1029,7 8 0 0,0
07.12.2017 17:00:00 11,1 7,8 6,8 12,2 13,6 4 2 10 5 WZW 1029,9 40 20 0,0
07.12.2017 16:00:00 13,7 9,7 15,6 12,2 13,6 9 5 17 9 ZZO 1030,0 40 60 0,0
07.12.2017 15:00:00 14,5 9,5 17,2 12,1 13,6 10 5 19 10 ZO 1030,2 40 58 0,0
07.12.2017 14:00:00 15,2 8,9 19,7 12,1 13,5 13 7 19 10 ZO 1030,5 10 60 0,0
07.12.2017 13:00:00 16,0 7,7 16,6 12,0 13,6 9 5 19 10 ZZO 1031,1 40 46 0,0
07.12.2017 12:00:00 14,1 4,9 12,6 11,9 13,6 13 7 19 10 WZW 1031,8 10 29 0,0
07.12.2017 11:00:00 12,0 3,7 14,8 11,9 13,6 13 7 18 10 ZW 1032,3 20 58 0,0
07.12.2017 10:00:00 10,8 3,3 11,8 11,8 13,6 13 7 20 11 ZW 1032,4 10 60 0,0
07.12.2017 09:00:00 9,2 2,5 6,9 11,9 13,6 16 8 24 13 WZW 1032,4 40 60 0,0
07.12.2017 08:00:00 7,7 2,2 6,0 11,9 13,6 15 8 29 16 WZW 1032,2 40 10 0,0
07.12.2017 07:00:00 7,3 1,8 5,9 11,9 13,6 15 8 23 12 WZW 1032,2 10 0 0,0
07.12.2017 06:00:00 6,9 1,8 5,6 11,9 13,6 14 8 28 15 ZW 1032,3 25 0 0,0
07.12.2017 05:00:00 6,9 2,0 5,7 11,9 13,6 15 8 23 12 WZW 1032,6 25 0 0,0
07.12.2017 04:00:00 7,1 2,0 6,0 11,9 13,6 16 9 26 14 WZW 1032,8 25 0 0,0
07.12.2017 03:00:00 7,4 2,1 6,3 12,0 13,6 17 9 27 14 WZW 1033,2 25 0 0,0
07.12.2017 02:00:00 7,4 2,3 6,4 12,0 13,7 17 9 29 16 WZW 1033,3 60 0 0,0
07.12.2017 01:00:00 7,6 2,3 6,6 12,0 13,7 18 10 30 16 WZW 1033,6 10 0 0,0
07.12.2017 00:00:00 7,7 2,6 6,2 12,0 13,7 18 10 26 14 WZW 1034,0 10 0 0,0
06.12.2017 23:00:00 7,3 3,0 6,1 12,0 13,7 16 9 25 13 WZW 1034,1 25 0 0,0
06.12.2017 22:00:00 7,9 3,2 6,6 12,0 13,7 14 8 24 13 WZW 1034,1 25 0 0,0
06.12.2017 21:00:00 8,4 3,4 3,1 11,9 13,7 17 9 26 14 W 1034,2 60 0 0,0
06.12.2017 20:00:00 7,7 3,5 0,4 11,9 13,7 9 5 19 10 ZW 1034,2 44 0 0,0
06.12.2017 19:00:00 6,5 4,3 0,5 11,9 13,7 4 2 9 5 WZW 1034,1 25 0 0,0
06.12.2017 18:00:00 7,9 5,0 2,0 11,9 13,7 4 2 8 5 WZW 1033,9 25 0 0,0
06.12.2017 17:00:00 10,7 5,4 5,7 11,9 13,7 4 2 19 11 NNW 1033,9 25 15 0,0
06.12.2017 16:00:00 12,9 5,8 13,1 11,8 13,7 8 4 19 10 N 1034,0 10 31 0,0
06.12.2017 15:00:00 13,8 6,6 14,9 11,8 13,7 16 9 23 13 NNO 1033,9 10 44 0,0
06.12.2017 14:00:00 14,5 8,0 15,6 11,9 13,7 13 7 29 15 NO 1033,9 10 49 0,0
06.12.2017 13:00:00 14,5 5,3 20,3 11,9 13,7 13 7 22 12 NNW 1034,3 10 60 0,0
06.12.2017 12:00:00 13,9 3,1 17,2 11,8 13,8 8 4 18 10 ZW 1034,8 10 60 0,0
06.12.2017 11:00:00 11,4 1,6 14,0 11,7 13,8 11 6 20 11 ZW 1035,3 25 60 0,0
06.12.2017 10:00:00 9,6 -0,1 7,4 11,7 13,8 16 9 23 13 ZW 1035,1 10 57 -
06.12.2017 09:00:00 6,9 -0,6 4,5 11,7 13,8 16 9 22 12 WZW 1034,9 10 45 0,0
06.12.2017 08:00:00 5,4 -0,9 3,1 11,7 13,8 13 7 18 10 WZW 1034,7 10 10 0,0
06.12.2017 07:00:00 4,4 -0,6 1,8 11,7 13,8 9 5 16 9 ZW 1034,6 10 0 0,0
06.12.2017 06:00:00 3,7 -0,9 1,6 11,8 13,8 9 5 13 7 ZW 1034,6 10 0 0,0
06.12.2017 05:00:00 4,8 -0,8 2,0 11,8 13,8 11 6 18 10 ZW 1034,5 40 0 0,0
06.12.2017 04:00:00 4,0 -0,4 1,6 11,8 13,8 9 5 13 7 ZW 1034,9 40 0 -
06.12.2017 03:00:00 4,6 -0,4 2,3 11,8 13,8 9 5 15 8 ZW 1035,1 10 0 0,0
06.12.2017 02:00:00 4,8 0,0 2,0 11,9 13,8 13 7 16 8 ZW 1034,9 10 0 0,0
06.12.2017 01:00:00 4,6 -0,2 1,9 12,0 13,8 9 5 12 7 WZW 1034,9 20 0 0,0
06.12.2017 00:00:00 4,4 0,0 1,9 12,0 13,8 9 5 11 6 ZW 1035,2 10 0 0,0
05.12.2017 23:00:00 4,5 0,4 1,2 12,0 13,8 9 5 11 6 ZW 1035,3 40 0 -
05.12.2017 22:00:00 4,6 0,7 0,8 12,0 13,9 8 4 10 5 WZW 1035,2 40 0 0,0
05.12.2017 21:00:00 4,6 0,7 -0,4 12,1 13,9 8 4 10 5 WZW 1035,1 10 0 -
05.12.2017 20:00:00 4,6 1,3 1,3 11,9 13,9 5 3 10 5 ZW 1034,9 10 0 0,0
05.12.2017 19:00:00 5,7 1,6 2,4 11,9 13,9 8 4 11 6 WZW 1034,4 10 0 0,0
05.12.2017 18:00:00 6,9 2,4 1,7 11,8 13,9 8 4 9 5 WZW 1034,1 10 0 0,0
05.12.2017 17:00:00 8,6 2,8 4,8 11,9 13,9 5 3 8 4 ZW 1033,8 10 20 -
05.12.2017 16:00:00 13,2 2,4 15,3 12,0 13,9 5 3 8 5 OZO 1033,5 10 60 0,0
05.12.2017 15:00:00 14,6 1,1 19,5 12,2 13,9 2 1 11 6 - 1033,4 10 60 0,0
05.12.2017 14:00:00 13,8 1,1 19,3 12,0 13,9 8 4 12 6 ZO 1033,4 10 60 0,0
05.12.2017 13:00:00 14,7 0,5 21,7 12,2 13,9 4 2 9 5 - 1033,4 10 60 -
05.12.2017 12:00:00 14,0 3,4 18,9 12,4 13,9 4 2 10 5 - 1033,5 10 60 0,0
05.12.2017 11:00:00 12,1 0,2 - 12,6 14,0 8 4 13 7 ZW 1033,9 10 - -
05.12.2017 10:00:00 9,6 -0,6 - - - 8 4 14 7 ZW 1033,4 40 - -

tt = temperatuur
td = dauwpunt
tt 5cm = temperatuur 5cm
tt -20cm = temperatuur -20cm
tt -100cm = temperatuur -100cm
ff = windsnelheid
fx = windstoten
dd = windrichting
ppp = luchtdruk
vv = zicht
sd = Zonneschijnduur
rr = neerslag

Weerstations in de omgeving